| time (UTC) | temp F | wind direction | speed knots | gust knots | rain 1hr in | rain 24hr in | rain mn in | humidity % | barometer mb |
| 20260506222002 | 79 | 22 | 5.2 | 12.2 | 0.00 | 0.00 | 0.00 | 25 | 1023.4 |
| 20260506221504 | 79 | 27 | 6.1 | 13.9 | 0.00 | 0.00 | 0.00 | 24 | 1023.4 |
| 20260506221003 | 78 | 268 | 1.7 | 7.8 | 0.00 | 0.00 | 0.00 | 25 | 1023.5 |
| 20260506220503 | 79 | 338 | 6.1 | 10.4 | 0.00 | 0.00 | 0.00 | 25 | 1023.6 |
| 20260506220003 | 79 | 67 | 4.3 | 8.7 | 0.00 | 0.00 | 0.00 | 25 | 1023.7 |
| 20260506215504 | 78 | 30 | 6.1 | 10.4 | 0.00 | 0.00 | 0.00 | 25 | 1023.8 |
| 20260506214503 | 78 | 344 | 4.3 | 8.7 | 0.00 | 0.00 | 0.00 | 25 | 1024.0 |
| 20260506214003 | 78 | 60 | 2.6 | 8.7 | 0.00 | 0.00 | 0.00 | 25 | 1024.0 |
| 20260506213503 | 78 | 35 | 4.3 | 8.7 | 0.00 | 0.00 | 0.00 | 25 | 1024.1 |
| 20260506213004 | 79 | 344 | 2.6 | 7.8 | 0.00 | 0.00 | 0.00 | 25 | 1024.1 |
| 20260506212504 | 78 | 49 | 4.3 | 33.0 | 0.00 | 0.00 | 0.00 | 25 | 1023.8 |
| 20260506212003 | 77 | 307 | 4.3 | 10.4 | 0.00 | 0.00 | 0.00 | 26 | 1023.9 |
| 20260506211503 | 77 | 21 | 3.5 | 7.0 | 0.00 | 0.00 | 0.00 | 26 | 1024.0 |
| 20260506211003 | 77 | 38 | 3.5 | 10.4 | 0.00 | 0.00 | 0.00 | 26 | 1024.1 |
| 20260506210503 | 78 | 352 | 2.6 | 10.4 | 0.00 | 0.00 | 0.00 | 26 | 1024.0 |
| 20260506210003 | 78 | 49 | 4.3 | 7.8 | 0.00 | 0.00 | 0.00 | 26 | 1024.0 |
| 20260506205503 | 78 | 103 | 2.6 | 6.1 | 0.00 | 0.00 | 0.00 | 26 | 1024.1 |
| 20260506205005 | 77 | 103 | 3.5 | 7.0 | 0.00 | 0.00 | 0.00 | 27 | 1024.2 |
| 20260506204504 | 77 | 75 | 1.7 | 6.1 | 0.00 | 0.00 | 0.00 | 27 | 1024.2 |
| 20260506203503 | 76 | 31 | 0.9 | 4.3 | 0.00 | 0.00 | 0.00 | 27 | 1024.4 |
| 20260506203003 | 76 | 60 | 2.6 | 8.7 | 0.00 | 0.00 | 0.00 | 28 | 1024.4 |
| 20260506202503 | 75 | 65 | 2.6 | 7.8 | 0.00 | 0.00 | 0.00 | 28 | 1024.2 |
| 20260506202003 | 74 | 92 | 1.7 | 10.4 | 0.00 | 0.00 | 0.00 | 28 | 1024.4 |
| 20260506201504 | 74 | 14 | 5.2 | 11.3 | 0.00 | 0.00 | 0.00 | 28 | 1024.5 |
| 20260506201004 | 74 | 9 | 6.1 | 10.4 | 0.00 | 0.00 | 0.00 | 29 | 1024.5 |
| 20260506200503 | 75 | 305 | 5.2 | 10.4 | 0.00 | 0.00 | 0.00 | 28 | 1024.6 |
| 20260506200003 | 75 | 336 | 8.7 | 12.2 | 0.00 | 0.00 | 0.00 | 28 | 1024.6 |
| 20260506195504 | 75 | 13 | 3.5 | 11.3 | 0.00 | 0.00 | 0.00 | 29 | 1024.5 |
| 20260506194503 | 74 | 14 | 8.7 | 13.9 | 0.00 | 0.00 | 0.00 | 29 | 1024.6 |
| 20260506194003 | 75 | 20 | 8.7 | 12.2 | 0.00 | 0.00 | 0.00 | 29 | 1024.4 |
| 20260506193503 | 74 | 42 | 4.3 | 10.4 | 0.00 | 0.00 | 0.00 | 29 | 1024.5 |
| 20260506193004 | 74 | 33 | 6.1 | 12.2 | 0.00 | 0.00 | 0.00 | 30 | 1024.5 |
| 20260506192003 | 74 | 34 | 4.3 | 10.4 | 0.00 | 0.00 | 0.00 | 28 | 1024.6 |
| 20260506191503 | 74 | 75 | 4.3 | 8.7 | 0.00 | 0.00 | 0.00 | 29 | 1024.6 |
| 20260506191003 | 73 | 10 | 6.1 | 10.4 | 0.00 | 0.00 | 0.00 | 28 | 1024.6 |
| 20260506190503 | 74 | 332 | 2.6 | 7.8 | 0.00 | 0.00 | 0.00 | 28 | 1024.8 |
| 20260506185502 | 74 | 32 | 7.0 | 13.0 | 0.00 | 0.00 | 0.00 | 28 | 1024.8 |
| 20260506185003 | 73 | 39 | 4.3 | 12.2 | 0.00 | 0.00 | 0.00 | 29 | 1024.8 |
| 20260506184503 | 73 | 17 | 7.8 | 13.0 | 0.00 | 0.00 | 0.00 | 28 | 1024.8 |
| 20260506184003 | 73 | 32 | 7.0 | 12.2 | 0.00 | 0.00 | 0.00 | 29 | 1024.9 |
| 20260506183003 | 72 | 42 | 6.1 | 12.2 | 0.00 | 0.00 | 0.00 | 28 | 1025.0 |
| 20260506182503 | 72 | 22 | 5.2 | 13.0 | 0.00 | 0.00 | 0.00 | 28 | 1024.8 |
| 20260506182003 | 72 | 11 | 6.1 | 13.0 | 0.00 | 0.00 | 0.00 | 28 | 1024.8 |
| 20260506181503 | 72 | 343 | 8.7 | 14.8 | 0.00 | 0.00 | 0.00 | 28 | 1024.7 |
| 20260506180503 | 73 | 19 | 8.7 | 13.0 | 0.00 | 0.00 | 0.00 | 28 | 1024.7 |
| 20260506180004 | 72 | 17 | 6.1 | 13.0 | 0.00 | 0.00 | 0.00 | 29 | 1024.7 |
| 20260506175503 | 71 | 11 | 8.7 | 13.9 | 0.00 | 0.00 | 0.00 | 28 | 1024.7 |
| 20260506175003 | 71 | 5 | 7.0 | 12.2 | 0.00 | 0.00 | 0.00 | 30 | 1024.7 |
| 20260506174503 | 71 | 8 | 8.7 | 12.2 | 0.00 | 0.00 | 0.00 | 30 | 1024.7 |
| 20260506174004 | 70 | 347 | 7.8 | 13.0 | 0.00 | 0.00 | 0.00 | 30 | 1024.7 |
| 20260506173503 | 70 | 24 | 8.7 | 13.0 | 0.00 | 0.00 | 0.00 | 30 | 1024.7 |
| 20260506173003 | 71 | 12 | 8.7 | 11.3 | 0.00 | 0.00 | 0.00 | 30 | 1024.6 |
| 20260506172503 | 71 | 4 | 8.7 | 13.0 | 0.00 | 0.00 | 0.00 | 29 | 1024.6 |
| 20260506172003 | 70 | 346 | 7.8 | 11.3 | 0.00 | 0.00 | 0.00 | 29 | 1024.6 |
| 20260506171503 | 70 | 9 | 7.8 | 11.3 | 0.00 | 0.00 | 0.00 | 29 | 1024.5 |
| 20260506171003 | 70 | 346 | 7.8 | 12.2 | 0.00 | 0.00 | 0.00 | 29 | 1024.4 |
| 20260506170503 | 70 | 357 | 7.8 | 12.2 | 0.00 | 0.00 | 0.00 | 30 | 1024.4 |
| 20260506170003 | 70 | 2 | 7.0 | 11.3 | 0.00 | 0.00 | 0.00 | 30 | 1024.4 |
| 20260506165503 | 69 | 20 | 7.0 | 10.4 | 0.00 | 0.00 | 0.00 | 32 | 1024.3 |
| 20260506165003 | 69 | 42 | 3.5 | 10.4 | 0.00 | 0.00 | 0.00 | 34 | 1024.4 |
| 20260506164504 | 68 | 49 | 4.3 | 10.4 | 0.00 | 0.00 | 0.00 | 35 | 1024.3 |
| 20260506164003 | 67 | 39 | 2.6 | 11.3 | 0.00 | 0.00 | 0.00 | 36 | 1024.3 |
| 20260506163003 | 67 | 51 | 5.2 | 10.4 | 0.00 | 0.00 | 0.00 | 37 | 1024.3 |
| 20260506162503 | 66 | 39 | 6.1 | 11.3 | 0.00 | 0.00 | 0.00 | 37 | 1024.0 |
| 20260506162003 | 66 | 42 | 6.1 | 10.4 | 0.00 | 0.00 | 0.00 | 37 | 1024.0 |
| 20260506161503 | 66 | 39 | 4.3 | 10.4 | 0.00 | 0.00 | 0.00 | 37 | 1024.0 |
| 20260506161004 | 66 | 34 | 5.2 | 11.3 | 0.00 | 0.00 | 0.00 | 38 | 1023.9 |
| 20260506160504 | 67 | 35 | 6.1 | 10.4 | 0.00 | 0.00 | 0.00 | 35 | 1023.9 |
| 20260506160004 | 67 | 32 | 5.2 | 10.4 | 0.00 | 0.00 | 0.00 | 34 | 1023.9 |
| 20260506155504 | 67 | 83 | 2.6 | 5.2 | 0.00 | 0.00 | 0.00 | 34 | 1023.9 |
| 20260506155003 | 66 | 105 | 1.7 | 2.6 | 0.00 | 0.00 | 0.00 | 34 | 1023.9 |
| 20260506154504 | 66 | 105 | 0.9 | 2.6 | 0.00 | 0.00 | 0.00 | 35 | 1024.1 |
| 20260506154003 | 65 | 133 | 0.0 | 1.7 | 0.00 | 0.00 | 0.00 | 35 | 1024.0 |
| 20260506153504 | 65 | 133 | 1.7 | 2.6 | 0.00 | 0.00 | 0.00 | 36 | 1024.0 |
| 20260506153004 | 64 | 135 | 2.6 | 4.3 | 0.00 | 0.00 | 0.00 | 36 | 1024.1 |
| 20260506152503 | 63 | 112 | 0.9 | 4.3 | 0.00 | 0.00 | 0.00 | 37 | 1024.1 |
| 20260506152003 | 63 | 28 | 0.9 | 2.6 | 0.00 | 0.00 | 0.00 | 38 | 1024.0 |
| 20260506151004 | 62 | 24 | 1.7 | 2.6 | 0.00 | 0.00 | 0.00 | 39 | 1024.0 |
| 20260506150504 | 61 | 173 | 1.7 | 6.1 | 0.00 | 0.00 | 0.00 | 39 | 1024.1 |
| 20260506150005 | 61 | 150 | 3.5 | 5.2 | 0.00 | 0.00 | 0.00 | 41 | 1024.2 |
| 20260506145503 | 61 | 150 | 3.5 | 5.2 | 0.00 | 0.00 | 0.00 | 41 | 1024.1 |
| 20260506145003 | 60 | 167 | 2.6 | 2.6 | 0.00 | 0.00 | 0.00 | 41 | 1024.2 |
| 20260506144503 | 60 | 205 | 0.0 | 1.7 | 0.00 | 0.00 | 0.00 | 42 | 1024.2 |
| 20260506144005 | 60 | 205 | 0.9 | 1.7 | 0.00 | 0.00 | 0.00 | 43 | 1024.2 |
| 20260506143503 | 59 | 205 | 0.0 | 1.7 | 0.00 | 0.00 | 0.00 | 43 | 1024.2 |
| 20260506143004 | 58 | 205 | 0.0 | 1.7 | 0.00 | 0.00 | 0.00 | 44 | 1024.2 |
| 20260506142504 | 58 | 205 | 0.0 | 0.9 | 0.00 | 0.00 | 0.00 | 45 | 1023.9 |
| 20260506142003 | 57 | 205 | 0.0 | 0.9 | 0.00 | 0.00 | 0.00 | 45 | 1023.9 |
| 20260506141504 | 57 | 205 | 0.0 | 2.6 | 0.00 | 0.00 | 0.00 | 45 | 1023.7 |
| 20260506140504 | 55 | 221 | 0.0 | 1.7 | 0.00 | 0.00 | 0.00 | 47 | 1023.7 |
| 20260506140003 | 55 | 221 | 0.0 | 0.0 | 0.00 | 0.00 | 0.00 | 47 | 1023.5 |
| 20260506135003 | 52 | 221 | 0.0 | 0.0 | 0.00 | 0.00 | 0.00 | 49 | 1023.5 |
| 20260506134004 | 50 | 221 | 0.0 | 0.0 | 0.00 | 0.00 | 0.00 | 51 | 1023.4 |
| 20260506133503 | 49 | 221 | 0.0 | 0.0 | 0.00 | 0.00 | 0.00 | 52 | 1023.3 |
| 20260506133004 | 49 | 221 | 0.0 | 0.9 | 0.00 | 0.00 | 0.00 | 53 | 1023.2 |
| 20260506132504 | 48 | 225 | 0.0 | 0.9 | 0.00 | 0.00 | 0.00 | 55 | 1023.2 |
| 20260506132003 | 47 | 225 | 0.0 | 0.0 | 0.00 | 0.00 | 0.00 | 55 | 1023.1 |
| 20260506131503 | 47 | 225 | 0.0 | 0.0 | 0.00 | 0.00 | 0.00 | 55 | 1023.0 |
| 20260506130503 | 47 | 225 | 0.9 | 2.6 | 0.00 | 0.00 | 0.00 | 55 | 1022.9 |
| 20260506130003 | 46 | 226 | 0.9 | 2.6 | 0.00 | 0.00 | 0.00 | 56 | 1022.9 |
| 20260506125003 | 46 | 225 | 0.0 | 0.0 | 0.00 | 0.00 | 0.00 | 56 | 1022.8 |
| 20260506124503 | 47 | 225 | 0.0 | 0.9 | 0.00 | 0.00 | 0.00 | 56 | 1022.7 |
| 20260506123503 | 48 | 225 | 0.0 | 0.0 | 0.00 | 0.00 | 0.00 | 55 | 1022.6 |
| 20260506123004 | 48 | 225 | 0.0 | 0.9 | 0.00 | 0.00 | 0.00 | 55 | 1022.6 |
| 20260506122504 | 48 | 225 | 0.9 | 1.7 | 0.00 | 0.00 | 0.00 | 56 | 1022.7 |
| 20260506122003 | 48 | 223 | 0.0 | 0.9 | 0.00 | 0.00 | 0.00 | 57 | 1022.7 |
| 20260506121503 | 47 | 222 | 0.9 | 1.7 | 0.00 | 0.00 | 0.00 | 57 | 1022.7 |
| 20260506121004 | 47 | 220 | 0.9 | 2.6 | 0.00 | 0.00 | 0.00 | 58 | 1022.6 |
| 20260506120504 | 46 | 237 | 0.9 | 2.6 | 0.00 | 0.00 | 0.00 | 58 | 1022.6 |
| 20260506115503 | 46 | 235 | 0.0 | 1.7 | 0.00 | 0.00 | 0.00 | 57 | 1022.6 |
| 20260506114003 | 46 | 235 | 0.9 | 2.6 | 0.00 | 0.00 | 0.00 | 58 | 1022.4 |
| 20260506113503 | 45 | 243 | 1.7 | 2.6 | 0.00 | 0.00 | 0.00 | 59 | 1022.4 |
| 20260506113003 | 45 | 242 | 0.9 | 2.6 | 0.00 | 0.00 | 0.00 | 61 | 1022.4 |
| 20260506112503 | 44 | 240 | 0.0 | 0.0 | 0.00 | 0.00 | 0.00 | 62 | 1022.3 |
| 20260506112003 | 44 | 240 | 0.0 | 0.0 | 0.00 | 0.00 | 0.00 | 61 | 1022.4 |
| 20260506111003 | 45 | 240 | 0.0 | 0.0 | 0.00 | 0.00 | 0.00 | 60 | 1022.3 |
| 20260506110503 | 45 | 240 | 0.0 | 0.0 | 0.00 | 0.00 | 0.00 | 60 | 1022.3 |
| 20260506110003 | 45 | 240 | 0.0 | 0.0 | 0.00 | 0.00 | 0.00 | 60 | 1022.3 |
| 20260506105504 | 45 | 240 | 0.0 | 0.0 | 0.00 | 0.00 | 0.00 | 61 | 1022.2 |
| 20260506105004 | 45 | 240 | 0.0 | 0.0 | 0.00 | 0.00 | 0.00 | 61 | 1022.1 |
| 20260506104504 | 45 | 240 | 0.0 | 0.0 | 0.00 | 0.00 | 0.00 | 61 | 1022.1 |
| 20260506104003 | 45 | 240 | 0.0 | 0.0 | 0.00 | 0.00 | 0.00 | 59 | 1022.1 |
| 20260506103504 | 45 | 240 | 0.0 | 0.0 | 0.00 | 0.00 | 0.00 | 58 | 1022.1 |
| 20260506103003 | 46 | 240 | 0.0 | 0.0 | 0.00 | 0.00 | 0.00 | 59 | 1022.0 |
| 20260506102003 | 47 | 240 | 0.0 | 0.0 | 0.00 | 0.00 | 0.00 | 56 | 1022.0 |
| 20260506101503 | 48 | 240 | 0.0 | 0.0 | 0.00 | 0.00 | 0.00 | 55 | 1021.9 |
| 20260506101004 | 48 | 240 | 0.0 | 0.0 | 0.00 | 0.00 | 0.00 | 55 | 1022.0 |
| 20260506095503 | 49 | 240 | 0.0 | 1.7 | 0.00 | 0.00 | 0.00 | 55 | 1022.0 |
| 20260506094504 | 49 | 246 | 0.9 | 2.6 | 0.00 | 0.00 | 0.00 | 54 | 1021.9 |
| 20260506093503 | 50 | 237 | 0.9 | 2.6 | 0.00 | 0.00 | 0.00 | 53 | 1021.8 |
| 20260506093003 | 50 | 244 | 1.7 | 2.6 | 0.00 | 0.00 | 0.00 | 53 | 1021.8 |
| 20260506092504 | 50 | 219 | 0.0 | 1.7 | 0.00 | 0.00 | 0.00 | 53 | 1021.9 |
| 20260506092003 | 50 | 217 | 0.9 | 1.7 | 0.00 | 0.00 | 0.00 | 52 | 1021.9 |
| 20260506091503 | 51 | 213 | 0.0 | 2.6 | 0.00 | 0.00 | 0.00 | 52 | 1021.8 |
| 20260506091004 | 51 | 212 | 1.7 | 2.6 | 0.00 | 0.00 | 0.00 | 52 | 1021.8 |
| 20260506090504 | 51 | 215 | 1.7 | 4.3 | 0.00 | 0.00 | 0.00 | 52 | 1021.8 |
| 20260506090003 | 51 | 220 | 1.7 | 2.6 | 0.00 | 0.00 | 0.00 | 52 | 1022.0 |
| 20260506085504 | 51 | 217 | 0.9 | 2.6 | 0.00 | 0.00 | 0.00 | 53 | 1022.0 |
| 20260506085003 | 50 | 208 | 0.0 | 1.7 | 0.00 | 0.00 | 0.00 | 53 | 1022.0 |
| 20260506084003 | 50 | 206 | 1.7 | 4.3 | 0.00 | 0.00 | 0.00 | 53 | 1022.0 |
| 20260506083503 | 49 | 202 | 2.6 | 4.3 | 0.00 | 0.00 | 0.00 | 55 | 1022.1 |
| 20260506083004 | 49 | 203 | 1.7 | 2.6 | 0.00 | 0.00 | 0.00 | 56 | 1021.8 |
| 20260506082004 | 48 | 206 | 0.0 | 1.7 | 0.00 | 0.00 | 0.00 | 58 | 1021.8 |
| 20260506081503 | 47 | 206 | 1.7 | 2.6 | 0.00 | 0.00 | 0.00 | 60 | 1021.8 |
| 20260506081004 | 47 | 227 | 0.0 | 1.7 | 0.00 | 0.00 | 0.00 | 61 | 1021.7 |
| 20260506080503 | 47 | 246 | 0.0 | 0.0 | 0.00 | 0.00 | 0.00 | 58 | 1021.8 |
| 20260506073503 | 51 | 247 | 0.0 | 0.0 | 0.00 | 0.00 | 0.00 | 54 | 1022.1 |
| 20260506073004 | 52 | 247 | 0.0 | 0.9 | 0.00 | 0.00 | 0.00 | 52 | 1021.9 |
| 20260506072503 | 53 | 246 | 0.0 | 1.7 | 0.00 | 0.00 | 0.00 | 52 | 1021.9 |
| 20260506072003 | 54 | 258 | 0.0 | 0.0 | 0.00 | 0.00 | 0.00 | 51 | 1022.0 |
| 20260506071504 | 54 | 258 | 0.0 | 2.6 | 0.00 | 0.00 | 0.00 | 52 | 1021.9 |
| 20260506070504 | 54 | 241 | 1.7 | 2.6 | 0.00 | 0.00 | 0.00 | 54 | 1021.8 |
| 20260506062503 | 54 | 329 | 2.6 | 4.3 | 0.00 | 0.00 | 0.00 | 56 | 1021.5 |
| 20260506061004 | 53 | 239 | 0.0 | 0.9 | 0.00 | 0.00 | 0.00 | 56 | 1021.3 |
| 20260506060503 | 53 | 239 | 0.0 | 0.0 | 0.00 | 0.00 | 0.00 | 54 | 1021.3 |
| 20260506051003 | 56 | 299 | 0.9 | 5.2 | 0.00 | 0.00 | 0.00 | 51 | 1020.6 |
| 20260506050503 | 57 | 304 | 0.9 | 4.3 | 0.00 | 0.00 | 0.00 | 51 | 1020.6 |
| 20260506044504 | 55 | 242 | 0.0 | 1.7 | 0.00 | 0.00 | 0.00 | 53 | 1020.5 |
| 20260506044003 | 55 | 204 | 0.9 | 2.6 | 0.00 | 0.00 | 0.00 | 52 | 1020.4 |
| 20260506043503 | 55 | 206 | 1.7 | 6.1 | 0.00 | 0.00 | 0.00 | 52 | 1020.3 |
| 20260506042004 | 56 | 184 | 0.9 | 2.6 | 0.00 | 0.00 | 0.00 | 51 | 1020.2 |
| 20260506041503 | 56 | 176 | 0.0 | 0.0 | 0.00 | 0.00 | 0.00 | 50 | 1020.1 |
| 20260506041003 | 57 | 176 | 0.0 | 1.7 | 0.00 | 0.00 | 0.00 | 50 | 1020.1 |
| 20260506040004 | 59 | 285 | 0.0 | 1.7 | 0.00 | 0.00 | 0.00 | 48 | 1020.0 |
| 20260506035503 | 59 | 292 | 2.6 | 7.8 | 0.00 | 0.00 | 0.00 | 48 | 1019.9 |
| 20260506035004 | 59 | 316 | 2.6 | 5.2 | 0.00 | 0.00 | 0.00 | 47 | 1019.7 |
| 20260506034004 | 59 | 322 | 5.2 | 8.7 | 0.00 | 0.00 | 0.00 | 47 | 1019.5 |
| 20260506033503 | 59 | 320 | 4.3 | 10.4 | 0.00 | 0.00 | 0.00 | 47 | 1019.4 |
| 20260506033005 | 59 | 304 | 3.5 | 7.8 | 0.00 | 0.00 | 0.00 | 47 | 1019.3 |
| 20260506032503 | 59 | 308 | 5.2 | 8.7 | 0.00 | 0.00 | 0.00 | 46 | 1019.3 |
| 20260506032003 | 60 | 318 | 5.2 | 10.4 | 0.00 | 0.00 | 0.00 | 46 | 1019.2 |
| 20260506031503 | 60 | 315 | 7.8 | 10.4 | 0.00 | 0.00 | 0.00 | 46 | 1019.2 |
| 20260506031003 | 60 | 316 | 5.2 | 8.7 | 0.00 | 0.00 | 0.00 | 46 | 1019.2 |
| 20260506030503 | 60 | 322 | 5.2 | 10.4 | 0.00 | 0.00 | 0.00 | 45 | 1019.1 |
| 20260506030004 | 60 | 322 | 4.3 | 10.4 | 0.00 | 0.00 | 0.00 | 44 | 1019.1 |
| 20260506025503 | 60 | 319 | 6.1 | 10.4 | 0.00 | 0.00 | 0.00 | 44 | 1019.1 |
| 20260506025004 | 60 | 331 | 2.6 | 10.4 | 0.00 | 0.00 | 0.00 | 42 | 1019.0 |
| 20260506024503 | 61 | 307 | 4.3 | 10.4 | 0.00 | 0.00 | 0.00 | 42 | 1019.0 |
| 20260506024004 | 61 | 328 | 6.1 | 10.4 | 0.00 | 0.00 | 0.00 | 42 | 1019.0 |
| 20260506023504 | 61 | 324 | 7.8 | 10.4 | 0.00 | 0.00 | 0.00 | 41 | 1019.0 |
| 20260506023003 | 61 | 321 | 4.3 | 8.7 | 0.00 | 0.00 | 0.00 | 41 | 1018.7 |
| 20260506022504 | 61 | 340 | 6.1 | 10.4 | 0.00 | 0.00 | 0.00 | 39 | 1018.7 |
| 20260506022004 | 62 | 319 | 5.2 | 10.4 | 0.00 | 0.00 | 0.00 | 39 | 1018.7 |
| 20260506021505 | 62 | 320 | 7.8 | 11.3 | 0.00 | 0.00 | 0.00 | 38 | 1018.5 |
| 20260506021003 | 63 | 347 | 5.2 | 8.7 | 0.00 | 0.00 | 0.00 | 36 | 1018.3 |
| 20260506015503 | 63 | 351 | 7.8 | 11.3 | 0.00 | 0.00 | 0.00 | 35 | 1018.2 |
| 20260506015004 | 64 | 320 | 6.1 | 10.4 | 0.00 | 0.00 | 0.00 | 35 | 1018.3 |
| 20260506014003 | 64 | 336 | 5.2 | 10.4 | 0.00 | 0.00 | 0.00 | 34 | 1018.1 |
| 20260506013503 | 64 | 351 | 7.8 | 12.2 | 0.00 | 0.00 | 0.00 | 34 | 1018.1 |
| 20260506013003 | 65 | 327 | 5.2 | 10.4 | 0.00 | 0.00 | 0.00 | 32 | 1018.1 |
| 20260506012503 | 65 | 328 | 5.2 | 10.4 | 0.00 | 0.00 | 0.00 | 33 | 1018.1 |
| 20260506012004 | 65 | 320 | 6.1 | 10.4 | 0.00 | 0.00 | 0.00 | 33 | 1018.0 |
| 20260506011504 | 65 | 306 | 4.3 | 11.3 | 0.00 | 0.00 | 0.00 | 33 | 1018.1 |
| 20260506011004 | 65 | 301 | 7.0 | 10.4 | 0.00 | 0.00 | 0.00 | 34 | 1018.1 |
| 20260506010504 | 64 | 349 | 4.3 | 8.7 | 0.00 | 0.00 | 0.00 | 35 | 1018.2 |
| 20260506010004 | 63 | 239 | 1.7 | 5.2 | 0.00 | 0.00 | 0.00 | 40 | 1018.2 |
| 20260506005504 | 63 | 235 | 2.6 | 4.3 | 0.00 | 0.00 | 0.00 | 40 | 1018.2 |
| 20260506003504 | 65 | 242 | 4.3 | 17.4 | 0.00 | 0.00 | 0.00 | 37 | 1017.9 |
| 20260506003005 | 65 | 190 | 4.3 | 7.8 | 0.00 | 0.00 | 0.00 | 38 | 1018.1 |
| 20260506002503 | 64 | 218 | 2.6 | 6.1 | 0.00 | 0.00 | 0.00 | 38 | 1018.0 |
| 20260506001503 | 64 | 248 | 3.5 | 8.7 | 0.00 | 0.00 | 0.00 | 38 | 1018.0 |
| 20260506000503 | 64 | 217 | 4.3 | 7.8 | 0.00 | 0.00 | 0.00 | 38 | 1018.0 |
| 20260506000004 | 64 | 240 | 5.2 | 8.7 | 0.00 | 0.00 | 0.00 | 39 | 1018.1 |
| 20260505235503 | 64 | 256 | 6.1 | 10.4 | 0.00 | 0.00 | 0.00 | 39 | 1018.1 |
| 20260505235003 | 64 | 241 | 2.6 | 7.8 | 0.00 | 0.00 | 0.00 | 39 | 1018.1 |
| 20260505234503 | 64 | 219 | 3.5 | 7.8 | 0.00 | 0.00 | 0.00 | 39 | 1018.0 |
| 20260505234004 | 64 | 206 | 2.6 | 6.1 | 0.00 | 0.00 | 0.00 | 38 | 1018.0 |
| 20260505233005 | 64 | 189 | 2.6 | 7.8 | 0.00 | 0.00 | 0.00 | 38 | 1018.0 |
| 20260505232504 | 64 | 209 | 2.6 | 10.4 | 0.00 | 0.00 | 0.00 | 38 | 1018.0 |
| 20260505232004 | 64 | 2 | 0.9 | 5.2 | 0.00 | 0.00 | 0.00 | 39 | 1018.1 |
| 20260505231504 | 63 | 149 | 0.9 | 2.6 | 0.00 | 0.00 | 0.00 | 39 | 1018.0 |
| 20260505231004 | 63 | 146 | 1.7 | 6.1 | 0.00 | 0.00 | 0.00 | 39 | 1018.0 |
| 20260505230504 | 63 | 171 | 1.7 | 6.1 | 0.00 | 0.00 | 0.00 | 39 | 1018.0 |
| 20260505230004 | 64 | 218 | 2.6 | 7.0 | 0.00 | 0.00 | 0.00 | 38 | 1018.0 |
| 20260505225504 | 64 | 187 | 0.9 | 4.3 | 0.00 | 0.00 | 0.00 | 39 | 1018.2 |
| 20260505225003 | 64 | 200 | 0.9 | 4.3 | 0.00 | 0.00 | 0.00 | 38 | 1018.1 |
| 20260505224504 | 64 | 239 | 2.6 | 5.2 | 0.00 | 0.00 | 0.00 | 37 | 1018.2 |
| 20260505224004 | 64 | 223 | 1.7 | 10.4 | 0.00 | 0.00 | 0.00 | 38 | 1018.2 |
| 20260505223505 | 64 | 173 | 0.9 | 5.2 | 0.00 | 0.00 | 0.00 | 37 | 1018.3 |
| 20260505223003 | 65 | 188 | 2.6 | 7.8 | 0.00 | 0.00 | 0.00 | 37 | 1018.3 |